This is the latest recevied weather packets stored in our database for station/object NQ9F. If no packets are shown the sender has not sent any weather packets the latest 1 day(s).
| Time | Temp. | Humidity | Pressure | Rain* | Wind** | Luminosity | Snow |
|---|---|---|---|---|---|---|---|
| 1778042063 | 15° C | 84% | 1010.8 hPa | 0 mm | 3.13 m/s, 3° | 0 W/m² | - |
| 1778041761 | 15° C | 84% | 1010.4 hPa | 0 mm | 4.92 m/s, 1° | 0 W/m² | - |
| 1778041460 | 15° C | 84% | 1010.5 hPa | 0 mm | 3.13 m/s, 353° | 0 W/m² | - |
| 1778041158 | 15° C | 83% | 1010.5 hPa | 0 mm | 5.36 m/s, 0° | 0 W/m² | - |
| 1778040855 | 15° C | 83% | 1010.7 hPa | 0 mm | 4.02 m/s, 4° | 0 W/m² | - |
| 1778040552 | 15° C | 83% | 1010.5 hPa | 0 mm | 5.81 m/s, 8° | 0 W/m² | - |
| 1778040249 | 15° C | 82% | 1010.4 hPa | 0 mm | 4.02 m/s, 0° | 0 W/m² | - |
| 1778039945 | 15° C | 82% | 1010.5 hPa | 0 mm | 3.58 m/s, 0° | 0 W/m² | - |
| 1778039643 | 15° C | 82% | 1010.4 hPa | 0 mm | 1.79 m/s, 340° | 0 W/m² | - |
| 1778039340 | 15.56° C | 82% | 1010.5 hPa | 0 mm | 4.02 m/s, 5° | 0 W/m² | - |
| 1778039037 | 15.56° C | 81% | 1010.4 hPa | 0 mm | 5.36 m/s, 335° | 0 W/m² | - |
| 1778038734 | 15.56° C | 81% | 1010.4 hPa | 0 mm | 3.58 m/s, 356° | 0 W/m² | - |
| 1778038431 | 15.56° C | 81% | 1010.1 hPa | 0 mm | 4.92 m/s, 0° | 0 W/m² | - |
| 1778038128 | 15.56° C | 81% | 1010 hPa | 0 mm | 5.81 m/s, 336° | 0 W/m² | - |
| 1778037824 | 16.11° C | 81% | 1009.9 hPa | 0 mm | 4.02 m/s, 338° | 0 W/m² | - |
| 1778037521 | 16.11° C | 81% | 1009.9 hPa | 0 mm | 2.68 m/s, 344° | 0 W/m² | - |
| 1778037219 | 16.11° C | 81% | 1009.6 hPa | 0 mm | 3.13 m/s, 355° | 0 W/m² | - |
| 1778036916 | 16.11° C | 81% | 1009.4 hPa | 0 mm | 3.13 m/s, 0° | 0 W/m² | - |
| 1778036614 | 16.11° C | 81% | 1009.2 hPa | 0 mm | 4.92 m/s, 359° | 0 W/m² | - |
| 1778036311 | 16.67° C | 80% | 1009.3 hPa | 0 mm | 2.68 m/s, 349° | 0 W/m² | - |
| 1778036007 | 16.67° C | 81% | 1009.2 hPa | 0 mm | 6.26 m/s, 5° | 0 W/m² | - |
| 1778035704 | 16.67° C | 81% | 1009.1 hPa | 0 mm | 6.26 m/s, 0° | 0 W/m² | - |
| 1778035401 | 16.67° C | 81% | 1009.1 hPa | 0 mm | 4.47 m/s, 2° | 0 W/m² | - |
| 1778035097 | 16.67° C | 81% | 1009.2 hPa | 0 mm | 3.58 m/s, 6° | 0 W/m² | - |
| 1778034794 | 16.67° C | 80% | 1009 hPa | 0 mm | 3.58 m/s, 4° | 0 W/m² | - |
* Rain latest hour (hover to see other rain measurements)
** Current wind speed in m/s (hover to see current wind gust speed)